Regional Weather Roundup
Issued by NWS

Home | Current Version | Previous Version | Text Only | Print | Product List | Glossary Off
Versions: 1 2 3 4 5 6 7 8 9 10 11 12 13 14 15 16 17 18 19 20 21 22 23 24 25 26 27 28 29 30 31 32 33 34 35 36 37 38 39 40 41 42 43 44 45 46 47 48 49 50

155
ASUS45 KCYS 252310
RWRWY

WYOMING REGIONAL WEATHER ROUNDUP
NATIONAL WEATHER SERVICE CHEYENNE WY
500 PM MDT SUN SEP 25 2016

NOTE:  "FAIR" INDICATES FEW OR NO CLOUDS BELOW 12,000 FEET
WITH NO SIGNIFICANT WEATHER AND/OR OBSTRUCTIONS TO VISIBILITY.

WYZ001-260000-
YELLOWSTONE NATIONAL PARK

CITY           SKY/WX    TMP DP  RH WIND       PRES   REMARKS
LK YELLOWSTONE   N/A     55  33  43 W6        30.54R
W YELLOWSTONE  NOT AVBL

$$
WYZ002>013-054>058-071-098>099-260000-
NORTHERN WYOMING

CITY           SKY/WX    TMP DP  RH WIND       PRES   REMARKS
JACKSON        SUNNY     61  34  36 W8        30.48S
CODY           FAIR      61  41  47 SE10      30.37S
GREYBULL       FAIR      62  40  44 SE5       30.35F
WORLAND        FAIR      63  36  36 CALM      30.35F
SHERIDAN       FAIR      65  38  36 NW5       30.32F
BUFFALO        FAIR      59  36  42 CALM      30.36F
GILLETTE       FAIR      60  35  39 W8        30.35F
HULETT         FAIR      59  32  36 W8        30.34F
NEWCASTLE      FAIR      59  28  31 NW15      30.36S

$$
WYZ014>020-022>026-101>103-260000-
CENTRAL WYOMING

CITY           SKY/WX    TMP DP  RH WIND       PRES   REMARKS
BIG PINEY      FAIR      64  32  30 N14G22    30.47F
PINEDALE       FAIR      63  32  31 NW15G21   30.47S
DUBOIS         FAIR      57  32  38 NW22G29   30.45R
LANDER         FAIR      63  40  42 SE3       30.38S
RIVERTON       FAIR      61  38  42 E6        30.39F
CASPER         FAIR      62  34  35 W16       30.37F
DOUGLAS        FAIR      63  34  33 NW14      30.36F

$$
WYZ021-027>030-104>119-260000-
SOUTHERN WYOMING

CITY           SKY/WX    TMP DP  RH WIND       PRES   REMARKS
EVANSTON       FAIR      59  32  36 N12       30.51S
FORT BRIDGER   FAIR      64  32  30 NW12G28   30.53S
ROCK SPRINGS   FAIR      58  29  33 SW12      30.47F
DIXON          FAIR      59  32  36 CALM      30.51S
RAWLINS        FAIR      59  33  37 SW13      30.46F
SARATOGA       FAIR      59  30  33 W10G17    30.49S
LARAMIE        FAIR      59  30  33 NW10G20   30.44S
CHEYENNE       FAIR      63  27  25 NW13G24   30.39S
TORRINGTON     FAIR      66  32  28 NW7       30.33F
PINE BLUFFS    FAIR      63  32  31 N15G24    30.37S

$$




USA.gov is the U.S. government's official web portal to all federal, state and local government web resources and services.